| time (UTC) | temp C | wind direction | speed KPH | gust KPH | rain 1hr cm | rain 24hr cm | rain mn cm | humidity % | barometer mb |
| 20260504031533 | 10 | 187 | 0.0 | 6.4 | 0.00 | 0.00 | 0.00 | 72 | 1013.7 |
| 20260504031033 | 10 | 187 | 0.0 | 8.0 | 0.00 | 0.00 | 0.00 | 72 | 1013.6 |
| 20260504030533 | 10 | 193 | 0.0 | 8.0 | 0.00 | 0.00 | 0.00 | 72 | 1013.6 |
| 20260504030033 | 10 | 246 | 0.0 | 8.0 | 0.00 | 0.00 | 0.00 | 72 | 1013.7 |
| 20260504025532 | 10 | 290 | 0.0 | 4.8 | 0.00 | 0.00 | 0.00 | 72 | 1013.9 |
| 20260504025032 | 10 | 176 | 0.0 | 9.7 | 0.00 | 0.00 | 0.00 | 72 | 1014.0 |
| 20260504024532 | 10 | 176 | 0.0 | 9.7 | 0.00 | 0.00 | 0.00 | 71 | 1013.9 |
| 20260504024032 | 10 | 159 | 1.6 | 9.7 | 0.00 | 0.00 | 0.00 | 71 | 1013.9 |
| 20260504023531 | 10 | 242 | 0.0 | 6.4 | 0.00 | 0.00 | 0.00 | 71 | 1014.0 |
| 20260504023033 | 10 | 242 | 0.0 | 6.4 | 0.00 | 0.00 | 0.00 | 71 | 1014.0 |
| 20260504022531 | 10 | 181 | 3.2 | 4.8 | 0.00 | 0.00 | 0.00 | 71 | 1014.0 |
| 20260504022031 | 10 | 259 | 0.0 | 3.2 | 0.00 | 0.00 | 0.00 | 71 | 1014.0 |
| 20260504021531 | 10 | 219 | 0.0 | 6.4 | 0.00 | 0.00 | 0.00 | 70 | 1014.0 |
| 20260504021030 | 10 | 219 | 0.0 | 6.4 | 0.00 | 0.00 | 0.00 | 70 | 1014.0 |
| 20260504020531 | 10 | 232 | 0.0 | 6.4 | 0.00 | 0.00 | 0.00 | 70 | 1014.0 |
| 20260504020031 | 10 | 248 | 4.8 | 4.8 | 0.00 | 0.00 | 0.00 | 70 | 1014.1 |
| 20260504015530 | 10 | 293 | 0.0 | 6.4 | 0.00 | 0.00 | 0.00 | 70 | 1014.1 |
| 20260504015030 | 10 | 293 | 0.0 | 6.4 | 0.00 | 0.00 | 0.00 | 70 | 1014.1 |
| 20260504014530 | 10 | 239 | 0.0 | 6.4 | 0.00 | 0.00 | 0.00 | 69 | 1014.0 |
| 20260504014030 | 10 | 224 | 0.0 | 9.7 | 0.00 | 0.00 | 0.00 | 69 | 1014.0 |
| 20260504013530 | 10 | 226 | 0.0 | 11.3 | 0.00 | 0.00 | 0.00 | 69 | 1014.0 |
| 20260504013029 | 10 | 242 | 0.0 | 12.9 | 0.00 | 0.00 | 0.00 | 69 | 1014.1 |
| 20260504012529 | 10 | 314 | 0.0 | 12.9 | 0.00 | 0.00 | 0.00 | 69 | 1014.1 |
| 20260504012030 | 10 | 226 | 6.4 | 17.7 | 0.00 | 0.00 | 0.00 | 69 | 1014.1 |
| 20260504011529 | 10 | 273 | 1.6 | 17.7 | 0.00 | 0.00 | 0.00 | 68 | 1014.2 |
| 20260504011029 | 11 | 288 | 3.2 | 17.7 | 0.00 | 0.00 | 0.00 | 68 | 1014.3 |
| 20260504010529 | 11 | 259 | 3.2 | 11.3 | 0.00 | 0.00 | 0.00 | 67 | 1014.3 |
| 20260504010029 | 11 | 264 | 4.8 | 12.9 | 0.00 | 0.00 | 0.00 | 68 | 1014.3 |
| 20260504005529 | 11 | 219 | 0.0 | 16.1 | 0.00 | 0.00 | 0.00 | 67 | 1014.2 |
| 20260504005028 | 11 | 307 | 6.4 | 17.7 | 0.00 | 0.00 | 0.00 | 67 | 1014.2 |
| 20260504004529 | 11 | 262 | 0.0 | 17.7 | 0.00 | 0.00 | 0.00 | 66 | 1014.1 |
| 20260504004028 | 11 | 197 | 3.2 | 19.3 | 0.00 | 0.00 | 0.00 | 65 | 1014.1 |
| 20260504003528 | 11 | 270 | 3.2 | 19.3 | 0.00 | 0.00 | 0.00 | 64 | 1014.0 |
| 20260504003028 | 12 | 302 | 8.0 | 22.5 | 0.00 | 0.00 | 0.00 | 62 | 1014.0 |
| 20260504002527 | 12 | 290 | 6.4 | 22.5 | 0.00 | 0.00 | 0.00 | 59 | 1013.9 |
| 20260504002027 | 13 | 304 | 9.7 | 22.5 | 0.00 | 0.00 | 0.00 | 55 | 1013.7 |
| 20260504001527 | 13 | 263 | 0.0 | 22.5 | 0.00 | 0.00 | 0.00 | 50 | 1013.4 |
| 20260504001028 | 13 | 240 | 1.6 | 22.5 | 0.00 | 0.00 | 0.00 | 49 | 1013.4 |
| 20260504000527 | 13 | 277 | 4.8 | 16.1 | 0.00 | 0.00 | 0.00 | 49 | 1013.4 |
| 20260504000027 | 13 | 276 | 8.0 | 17.7 | 0.00 | 0.00 | 0.00 | 48 | 1013.3 |
| 20260503235527 | 13 | 322 | 3.2 | 17.7 | 0.00 | 0.00 | 0.00 | 51 | 1013.4 |
| 20260503235027 | 13 | 294 | 0.0 | 17.7 | 0.00 | 0.00 | 0.00 | 50 | 1013.4 |
| 20260503234526 | 13 | 274 | 9.7 | 17.7 | 0.00 | 0.00 | 0.00 | 49 | 1013.5 |
| 20260503234026 | 13 | 231 | 0.0 | 22.5 | 0.00 | 0.00 | 0.00 | 50 | 1013.5 |
| 20260503233526 | 13 | 274 | 4.8 | 22.5 | 0.00 | 0.00 | 0.00 | 49 | 1013.5 |
| 20260503233026 | 13 | 307 | 0.0 | 22.5 | 0.00 | 0.00 | 0.00 | 49 | 1013.6 |
| 20260503232525 | 13 | 248 | 0.0 | 12.9 | 0.00 | 0.00 | 0.00 | 50 | 1013.6 |
| 20260503232026 | 13 | 291 | 4.8 | 19.3 | 0.00 | 0.00 | 0.00 | 49 | 1013.5 |
| 20260503231525 | 14 | 221 | 0.0 | 19.3 | 0.00 | 0.00 | 0.00 | 49 | 1013.6 |
| 20260503231026 | 14 | 294 | 8.0 | 19.3 | 0.00 | 0.00 | 0.00 | 48 | 1013.6 |
| 20260503230525 | 14 | 304 | 0.0 | 20.9 | 0.00 | 0.00 | 0.00 | 49 | 1013.7 |
| 20260503230025 | 14 | 252 | 4.8 | 20.9 | 0.00 | 0.00 | 0.00 | 48 | 1013.9 |
| 20260503225524 | 14 | 305 | 4.8 | 20.9 | 0.00 | 0.00 | 0.00 | 47 | 1013.7 |
| 20260503225025 | 14 | 257 | 1.6 | 16.1 | 0.00 | 0.00 | 0.00 | 48 | 1013.7 |
| 20260503224524 | 14 | 269 | 4.8 | 16.1 | 0.00 | 0.00 | 0.00 | 48 | 1013.7 |
| 20260503224025 | 14 | 252 | 6.4 | 16.1 | 0.00 | 0.00 | 0.00 | 48 | 1013.9 |
| 20260503223524 | 14 | 232 | 4.8 | 19.3 | 0.00 | 0.00 | 0.00 | 48 | 1013.9 |
| 20260503223024 | 14 | 291 | 0.0 | 19.3 | 0.00 | 0.00 | 0.00 | 48 | 1014.0 |
| 20260503222524 | 14 | 270 | 3.2 | 19.3 | 0.00 | 0.00 | 0.00 | 47 | 1014.1 |
| 20260503222024 | 14 | 266 | 4.8 | 17.7 | 0.00 | 0.00 | 0.00 | 48 | 1014.1 |
| 20260503221523 | 14 | 248 | 3.2 | 17.7 | 0.00 | 0.00 | 0.00 | 48 | 1014.2 |
| 20260503221024 | 14 | 245 | 0.0 | 17.7 | 0.00 | 0.00 | 0.00 | 48 | 1014.2 |
| 20260503220523 | 14 | 215 | 0.0 | 16.1 | 0.00 | 0.00 | 0.00 | 48 | 1014.2 |
| 20260503220024 | 14 | 285 | 3.2 | 20.9 | 0.00 | 0.00 | 0.00 | 47 | 1014.1 |
| 20260503215523 | 14 | 294 | 6.4 | 20.9 | 0.00 | 0.00 | 0.00 | 48 | 1014.2 |
| 20260503215023 | 14 | 212 | 0.0 | 24.1 | 0.00 | 0.00 | 0.00 | 48 | 1014.2 |
| 20260503214523 | 14 | 293 | 0.0 | 24.1 | 0.00 | 0.00 | 0.00 | 48 | 1014.2 |
| 20260503214023 | 14 | 295 | 3.2 | 24.1 | 0.00 | 0.00 | 0.00 | 47 | 1014.2 |
| 20260503213522 | 14 | 271 | 1.6 | 22.5 | 0.00 | 0.00 | 0.00 | 48 | 1014.3 |
| 20260503213022 | 14 | 243 | 6.4 | 29.0 | 0.00 | 0.00 | 0.00 | 48 | 1014.3 |
| 20260503212522 | 15 | 305 | 16.1 | 29.0 | 0.00 | 0.00 | 0.00 | 47 | 1014.3 |
| 20260503212023 | 15 | 305 | 1.6 | 29.0 | 0.00 | 0.00 | 0.00 | 48 | 1014.2 |
| 20260503211522 | 15 | 274 | 1.6 | 22.5 | 0.00 | 0.00 | 0.00 | 48 | 1014.3 |
| 20260503211021 | 15 | 281 | 4.8 | 17.7 | 0.00 | 0.00 | 0.00 | 48 | 1014.3 |
| 20260503210522 | 15 | 283 | 3.2 | 22.5 | 0.00 | 0.00 | 0.00 | 46 | 1014.4 |
| 20260503210022 | 15 | 260 | 3.2 | 22.5 | 0.00 | 0.00 | 0.00 | 46 | 1014.4 |
| 20260503205521 | 15 | 287 | 4.8 | 22.5 | 0.00 | 0.00 | 0.00 | 46 | 1014.4 |
| 20260503205021 | 15 | 277 | 6.4 | 20.9 | 0.00 | 0.00 | 0.00 | 47 | 1014.4 |
| 20260503204521 | 15 | 243 | 0.0 | 20.9 | 0.00 | 0.00 | 0.00 | 49 | 1014.4 |
| 20260503204021 | 15 | 236 | 4.8 | 20.9 | 0.00 | 0.00 | 0.00 | 47 | 1014.4 |
| 20260503203520 | 15 | 276 | 9.7 | 19.3 | 0.00 | 0.00 | 0.00 | 48 | 1014.5 |
| 20260503203021 | 15 | 287 | 3.2 | 20.9 | 0.00 | 0.00 | 0.00 | 46 | 1014.5 |
| 20260503202521 | 15 | 283 | 0.0 | 22.5 | 0.00 | 0.00 | 0.00 | 50 | 1014.7 |
| 20260503202021 | 14 | 304 | 0.0 | 22.5 | 0.00 | 0.00 | 0.00 | 49 | 1014.7 |
| 20260503201520 | 15 | 311 | 20.9 | 22.5 | 0.00 | 0.00 | 0.00 | 46 | 1014.7 |
| 20260503201020 | 15 | 307 | 6.4 | 19.3 | 0.00 | 0.00 | 0.00 | 48 | 1014.8 |
| 20260503200520 | 15 | 309 | 6.4 | 27.4 | 0.00 | 0.00 | 0.00 | 48 | 1014.9 |
| 20260503200020 | 15 | 276 | 8.0 | 27.4 | 0.00 | 0.00 | 0.00 | 47 | 1015.0 |
| 20260503195519 | 15 | 284 | 9.7 | 27.4 | 0.00 | 0.00 | 0.00 | 47 | 1015.1 |
| 20260503195019 | 15 | 176 | 3.2 | 24.1 | 0.00 | 0.00 | 0.00 | 48 | 1015.1 |
| 20260503194519 | 15 | 257 | 9.7 | 20.9 | 0.00 | 0.00 | 0.00 | 47 | 1015.1 |
| 20260503194019 | 15 | 262 | 4.8 | 29.0 | 0.00 | 0.00 | 0.00 | 47 | 1015.2 |
| 20260503193519 | 15 | 295 | 4.8 | 29.0 | 0.00 | 0.00 | 0.00 | 45 | 1015.3 |
| 20260503193019 | 16 | 280 | 11.3 | 29.0 | 0.00 | 0.00 | 0.00 | 46 | 1015.3 |
| 20260503192518 | 16 | 221 | 3.2 | 24.1 | 0.00 | 0.00 | 0.00 | 45 | 1015.4 |
| 20260503192018 | -1 | 281 | 0.0 | 24.1 | 0.00 | 0.00 | 0.00 | 49 | 1015.4 |
| 20260503190043 | 16 | 274 | 6.4 | 25.7 | 0.00 | 0.00 | 0.00 | 47 | 1015.8 |
| 20260503185542 | 15 | 238 | 0.0 | 20.9 | 0.00 | 0.00 | 0.00 | 45 | 1016.0 |
| 20260503185042 | 15 | 323 | 3.2 | 20.9 | 0.00 | 0.00 | 0.00 | 45 | 1016.0 |
| 20260503184542 | 15 | 283 | 6.4 | 20.9 | 0.00 | 0.00 | 0.00 | 45 | 1016.0 |
| 20260503184042 | 15 | 298 | 0.0 | 16.1 | 0.00 | 0.00 | 0.00 | 50 | 1016.1 |
| 20260503183542 | 15 | 257 | 3.2 | 16.1 | 0.00 | 0.00 | 0.00 | 48 | 1016.1 |
| 20260503183042 | 15 | 308 | 16.1 | 20.9 | 0.00 | 0.00 | 0.00 | 48 | 1016.2 |
| 20260503182542 | 15 | 293 | 8.0 | 20.9 | 0.00 | 0.00 | 0.00 | 47 | 1016.2 |
| 20260503182042 | 15 | 278 | 8.0 | 20.9 | 0.00 | 0.00 | 0.00 | 47 | 1016.3 |
| 20260503181541 | 15 | 238 | 9.7 | 16.1 | 0.00 | 0.00 | 0.00 | 47 | 1016.3 |
| 20260503181041 | 15 | 309 | 8.0 | 16.1 | 0.00 | 0.00 | 0.00 | 45 | 1016.4 |
| 20260503180541 | 15 | 249 | 8.0 | 16.1 | 0.00 | 0.00 | 0.00 | 47 | 1016.4 |
| 20260503180041 | 15 | 291 | 0.0 | 16.1 | 0.00 | 0.00 | 0.00 | 46 | 1016.5 |
| 20260503175541 | 15 | 290 | 12.9 | 20.9 | 0.00 | 0.00 | 0.00 | 47 | 1016.5 |
| 20260503175041 | 15 | 321 | 6.4 | 20.9 | 0.00 | 0.00 | 0.00 | 51 | 1016.6 |
| 20260503174540 | 15 | 290 | 4.8 | 20.9 | 0.00 | 0.00 | 0.00 | 46 | 1016.7 |
| 20260503174040 | 15 | 284 | 4.8 | 16.1 | 0.00 | 0.00 | 0.00 | 50 | 1016.6 |
| 20260503173541 | 14 | 293 | 1.6 | 17.7 | 0.00 | 0.00 | 0.00 | 48 | 1016.6 |
| 20260503173040 | 14 | 280 | 3.2 | 20.9 | 0.00 | 0.00 | 0.00 | 51 | 1016.8 |
| 20260503172540 | 14 | 323 | 9.7 | 29.0 | 0.00 | 0.00 | 0.00 | 52 | 1017.0 |
| 20260503172040 | 14 | 276 | 8.0 | 29.0 | 0.00 | 0.00 | 0.00 | 49 | 1017.0 |
| 20260503171539 | 14 | 311 | 9.7 | 29.0 | 0.00 | 0.00 | 0.00 | 51 | 1017.1 |
| 20260503171039 | 14 | 298 | 3.2 | 17.7 | 0.00 | 0.00 | 0.00 | 52 | 1017.1 |
| 20260503170540 | 14 | 311 | 12.9 | 17.7 | 0.00 | 0.00 | 0.00 | 52 | 1017.1 |
| 20260503150535 | 11 | 311 | 4.8 | 19.3 | 0.00 | 0.00 | 0.00 | 57 | 1017.9 |
| 20260503131036 | 7 | 218 | 0.0 | 8.0 | 0.00 | 0.00 | 0.00 | 73 | 1018.5 |
| 20260503130537 | 6 | 226 | 0.0 | 6.4 | 0.00 | 0.00 | 0.00 | 73 | 1018.5 |
| 20260503110533 | 1 | 285 | 0.0 | 0.0 | 0.00 | 0.00 | 0.00 | 93 | 1017.9 |
| 20260503081527 | 2 | 285 | 0.0 | 0.0 | 0.00 | 0.00 | 0.00 | 92 | 1017.7 |
| 20260503081027 | 2 | 285 | 0.0 | 0.0 | 0.00 | 0.00 | 0.00 | 92 | 1017.7 |
| 20260503080527 | 2 | 285 | 0.0 | 0.0 | 0.00 | 0.00 | 0.00 | 92 | 1017.7 |
| 20260503072526 | 2 | 285 | 0.0 | 0.0 | 0.00 | 0.00 | 0.00 | 93 | 1017.7 |
| 20260503072025 | 2 | 285 | 0.0 | 0.0 | 0.00 | 0.00 | 0.00 | 93 | 1017.7 |
| 20260503071526 | 2 | 285 | 0.0 | 0.0 | 0.00 | 0.00 | 0.00 | 93 | 1017.7 |
| 20260503071026 | 2 | 285 | 0.0 | 0.0 | 0.00 | 0.00 | 0.00 | 93 | 1017.6 |
| 20260503070525 | 2 | 285 | 0.0 | 0.0 | 0.00 | 0.00 | 0.00 | 93 | 1017.6 |
| 20260503055023 | 2 | 285 | 0.0 | 0.0 | 0.00 | 0.00 | 0.00 | 93 | 1017.8 |
| 20260503054523 | 2 | 285 | 0.0 | 0.0 | 0.00 | 0.00 | 0.00 | 93 | 1017.9 |
| 20260503054023 | 3 | 285 | 0.0 | 0.0 | 0.00 | 0.00 | 0.00 | 93 | 1017.9 |
| 20260503053523 | 3 | 285 | 0.0 | 0.0 | 0.00 | 0.00 | 0.00 | 93 | 1017.9 |
| 20260503053023 | 3 | 285 | 0.0 | 0.0 | 0.00 | 0.00 | 0.00 | 93 | 1017.9 |
| 20260503052522 | 3 | 285 | 0.0 | 0.0 | 0.00 | 0.00 | 0.00 | 92 | 1017.9 |
| 20260503052023 | 3 | 285 | 0.0 | 0.0 | 0.00 | 0.00 | 0.00 | 92 | 1017.9 |
| 20260503051522 | 3 | 285 | 0.0 | 0.0 | 0.00 | 0.00 | 0.00 | 92 | 1017.9 |
| 20260503051021 | 3 | 285 | 0.0 | 0.0 | 0.00 | 0.00 | 0.00 | 92 | 1017.9 |
| 20260503050522 | 3 | 285 | 0.0 | 0.0 | 0.00 | 0.00 | 0.00 | 92 | 1017.9 |
| 20260503050022 | 3 | 285 | 0.0 | 0.0 | 0.00 | 0.00 | 0.00 | 92 | 1017.9 |
| 20260503045523 | 3 | 285 | 0.0 | 0.0 | 0.00 | 0.00 | 0.00 | 92 | 1017.9 |
| 20260503045022 | 3 | 285 | 0.0 | 0.0 | 0.00 | 0.00 | 0.00 | 92 | 1017.9 |
| 20260503044523 | 3 | 285 | 0.0 | 0.0 | 0.00 | 0.00 | 0.00 | 92 | 1017.9 |
| 20260503044021 | 3 | 285 | 0.0 | 0.0 | 0.00 | 0.00 | 0.00 | 92 | 1017.8 |
| 20260503043521 | 3 | 285 | 0.0 | 0.0 | 0.00 | 0.00 | 0.00 | 92 | 1017.8 |
| 20260503043020 | 4 | 285 | 0.0 | 0.0 | 0.00 | 0.00 | 0.00 | 92 | 1017.8 |
| 20260503042521 | 4 | 285 | 0.0 | 0.0 | 0.00 | 0.00 | 0.00 | 92 | 1017.9 |
| 20260503042020 | 4 | 285 | 0.0 | 0.0 | 0.00 | 0.00 | 0.00 | 91 | 1017.9 |
| 20260503041521 | 4 | 285 | 0.0 | 0.0 | 0.00 | 0.03 | 0.00 | 91 | 1017.9 |
| 20260503041021 | 4 | 285 | 0.0 | 0.0 | 0.00 | 0.05 | 0.00 | 91 | 1018.1 |
| 20260503040521 | 4 | 285 | 0.0 | 0.0 | 0.00 | 0.05 | 0.00 | 92 | 1018.1 |
| 20260503040020 | 4 | 285 | 0.0 | 0.0 | 0.00 | 0.08 | 0.00 | 92 | 1018.1 |
| 20260503035519 | -1 | 285 | 0.0 | 0.0 | 0.00 | 0.08 | 0.08 | 92 | 1018.2 |